Latest Coastal Weather Observations for Spring Bay

IDT60701

Issued at 10:32 am EST Tuesday 22 May 2018 (issued every 10 minutes, with the page automatically refreshed every 10 minutes)

About coastal observations | Map of coastal stations | Coastal observations for TAS | Marine services | Other Formats
Station Details ID: 092133 Name: SPRING BAY NTC AWS Lat: -42.55 Lon: 147.93 Height: 0.0 m
Data from the previous 72 hours. | See also: Recent months for locations in Tasmania
Date/Time
EST
Temp
°C
Wind Pressure Rain since
9am
mm
Weather Cloud Vis
km
Sea
Height
m
Swell
Dir  Spd
kts
Gust
kts
hPa Trend Height
m
Period
s
Dir
22/10:30am 13.6 - - - 1010.3 - - - - - - - - -
22/10:00am 13.3 - - - 1009.7 - - - - - - - - -
22/09:30am 13.2 - - - 1008.9 - - - - - - - - -
22/09:00am 13.0 - - - 1008.3 - - - - - - - - -
22/08:30am 12.8 - - - 1008.2 - - - - - - - - -
22/08:00am 12.8 - - - 1007.9 - - - - - - - - -
22/07:30am 12.9 - - - 1007.5 - - - - - - - - -
22/07:00am 13.0 - - - 1006.9 - - - - - - - - -
22/06:30am 13.2 - - - 1006.2 - - - - - - - - -
22/06:00am 13.5 - - - 1005.8 - - - - - - - - -
22/05:30am 13.5 - - - 1005.3 - - - - - - - - -
22/05:00am 13.5 - - - 1005.5 - - - - - - - - -
22/04:30am 13.5 - - - 1005.4 - - - - - - - - -
22/04:00am 13.4 - - - 1005.5 - - - - - - - - -
22/03:30am 13.7 - - - 1004.9 - - - - - - - - -
22/03:00am 14.1 - - - 1004.5 - - - - - - - - -
22/02:30am 14.4 - - - 1004.1 - - - - - - - - -
22/02:00am 14.7 - - - 1003.7 - - - - - - - - -
22/01:30am 14.8 - - - 1003.6 - - - - - - - - -
22/01:00am 14.8 - - - 1003.7 - - - - - - - - -
22/12:30am 14.9 - - - 1003.4 - - - - - - - - -
22/12:00am 15.1 - - - 1003.3 - - - - - - - - -
 
Date/Time
EST
Temp
°C
Wind Pressure Rain since
9am
mm
Weather Cloud Vis
km
Sea
Height
m
Swell
Dir  Spd
kts
Gust
kts
hPa Trend Height
m
Period
s
Dir
21/11:30pm 15.2 - - - 1003.5 - - - - - - - - -
21/11:00pm 15.0 - - - 1003.7 - - - - - - - - -
21/10:30pm 15.3 - - - 1003.9 - - - - - - - - -
21/10:00pm 15.7 - - - 1004.0 - - - - - - - - -
21/09:30pm 14.6 - - - 1004.1 - - - - - - - - -
21/09:00pm 14.9 - - - 1004.1 - - - - - - - - -
21/08:30pm 15.0 - - - 1004.0 - - - - - - - - -
21/08:00pm 14.9 - - - 1004.0 - - - - - - - - -
21/07:30pm 15.2 - - - 1004.5 - - - - - - - - -
21/07:00pm 14.9 - - - 1004.5 - - - - - - - - -
21/06:30pm 14.7 - - - 1004.7 - - - - - - - - -
21/06:00pm 14.2 - - - 1005.0 - - - - - - - - -
21/05:30pm 14.2 - - - 1004.9 - - - - - - - - -
21/05:00pm 14.3 - - - 1005.2 - - - - - - - - -
21/04:30pm 14.5 - - - 1005.4 - - - - - - - - -
21/04:00pm 14.6 - - - 1005.4 - - - - - - - - -
21/03:30pm 15.0 - - - 1005.6 - - - - - - - - -
21/03:00pm 15.1 - - - 1005.1 - - - - - - - - -
21/02:30pm 15.3 - - - 1005.6 - - - - - - - - -
21/02:00pm 15.6 - - - 1005.8 - - - - - - - - -
21/01:30pm 15.3 - - - 1006.3 - - - - - - - - -
21/01:00pm 14.7 - - - 1006.9 - - - - - - - - -
21/12:30pm 14.1 - - - 1007.6 - - - - - - - - -
21/12:00pm 14.2 - - - 1007.8 - - - - - - - - -
21/11:30am 13.8 - - - 1008.6 - - - - - - - - -
21/11:00am 13.5 - - - 1008.7 - - - - - - - - -
21/10:30am 13.0 - - - 1009.0 - - - - - - - - -
21/10:00am 12.8 - - - 1009.5 - - - - - - - - -
21/09:30am 12.9 - - - 1009.4 - - - - - - - - -
21/09:00am 12.7 - - - 1009.4 - - - - - - - - -
21/08:30am 12.3 - - - 1009.8 - - - - - - - - -
21/08:00am 12.1 - - - 1009.8 - - - - - - - - -
21/07:30am 12.1 - - - 1009.8 - - - - - - - - -
21/07:00am 12.0 - - - 1009.6 - - - - - - - - -
21/06:30am 12.1 - - - 1009.6 - - - - - - - - -
21/06:00am 11.9 - - - 1009.5 - - - - - - - - -
21/05:30am 12.0 - - - 1009.3 - - - - - - - - -
21/05:00am 11.9 - - - 1009.1 - - - - - - - - -
21/04:30am 12.0 - - - 1008.9 - - - - - - - - -
21/04:00am 11.8 - - - 1008.9 - - - - - - - - -
21/03:30am 12.0 - - - 1008.9 - - - - - - - - -
21/03:00am 12.2 - - - 1008.8 - - - - - - - - -
21/02:30am 12.4 - - - 1009.0 - - - - - - - - -
21/02:00am 12.4 - - - 1009.0 - - - - - - - - -
21/01:30am 12.6 - - - 1008.7 - - - - - - - - -
21/01:00am 12.6 - - - 1008.9 - - - - - - - - -
21/12:30am 12.5 - - - 1008.9 - - - - - - - - -
21/12:00am 12.8 - - - 1008.9 - - - - - - - - -
 
Date/Time
EST
Temp
°C
Wind Pressure Rain since
9am
mm
Weather Cloud Vis
km
Sea
Height
m
Swell
Dir  Spd
kts
Gust
kts
hPa Trend Height
m
Period
s
Dir
20/11:30pm 12.7 - - - 1008.8 - - - - - - - - -
20/11:00pm 12.8 - - - 1008.5 - - - - - - - - -
20/10:30pm 13.3 - - - 1008.3 - - - - - - - - -
20/10:00pm 13.1 - - - 1008.4 - - - - - - - - -
20/09:30pm 13.6 - - - 1008.3 - - - - - - - - -
20/09:00pm 12.8 - - - 1008.1 - - - - - - - - -
20/08:30pm 13.2 - - - 1008.2 - - - - - - - - -
20/08:00pm 13.2 - - - 1008.3 - - - - - - - - -
20/07:30pm 12.9 - - - 1008.1 - - - - - - - - -
20/07:00pm 12.4 - - - 1008.3 - - - - - - - - -
20/06:30pm 12.8 - - - 1008.2 - - - - - - - - -
20/06:00pm 12.9 - - - 1008.1 - - - - - - - - -
20/05:30pm 12.6 - - - 1008.4 - - - - - - - - -
20/05:00pm 13.4 - - - 1008.5 - - - - - - - - -
20/04:30pm 13.7 - - - 1008.6 - - - - - - - - -
20/04:00pm 14.0 - - - 1008.9 - - - - - - - - -
20/03:30pm 14.0 - - - 1008.9 - - - - - - - - -
20/03:00pm 14.6 - - - 1008.8 - - - - - - - - -
20/02:30pm 14.6 - - - 1008.8 - - - - - - - - -
20/02:00pm 14.4 - - - 1008.9 - - - - - - - - -
20/01:30pm 14.8 - - - 1008.7 - - - - - - - - -
20/01:00pm 15.1 - - - 1008.8 - - - - - - - - -
20/12:30pm 14.8 - - - 1009.0 - - - - - - - - -
20/12:00pm 14.8 - - - 1009.0 - - - - - - - - -
20/11:30am 14.3 - - - 1009.4 - - - - - - - - -
20/11:00am 14.5 - - - 1009.4 - - - - - - - - -
20/10:30am 14.4 - - - 1009.2 - - - - - - - - -
20/10:00am 14.2 - - - 1009.1 - - - - - - - - -
20/09:30am 14.1 - - - 1009.0 - - - - - - - - -
20/09:00am 13.8 - - - 1008.6 - - - - - - - - -
20/08:30am 13.6 - - - 1008.3 - - - - - - - - -
20/08:00am 13.3 - - - 1008.0 - - - - - - - - -
20/07:30am 13.3 - - - 1007.3 - - - - - - - - -
20/07:00am 13.5 - - - 1006.8 - - - - - - - - -
20/06:30am 13.8 - - - 1006.6 - - - - - - - - -
20/06:00am 13.8 - - - 1006.0 - - - - - - - - -
20/05:30am 14.2 - - - 1005.7 - - - - - - - - -
20/05:00am 14.4 - - - 1005.0 - - - - - - - - -
20/04:30am 14.5 - - - 1004.5 - - - - - - - - -
20/04:00am 14.6 - - - 1004.8 - - - - - - - - -
20/03:30am 14.4 - - - 1004.6 - - - - - - - - -
20/03:00am 14.8 - - - 1004.7 - - - - - - - - -
20/02:30am 14.6 - - - 1004.6 - - - - - - - - -
20/02:00am 14.6 - - - 1004.4 - - - - - - - - -
20/01:30am 14.6 - - - 1003.9 - - - - - - - - -
20/01:00am 14.4 - - - 1004.4 - - - - - - - - -
20/12:30am 14.4 - - - 1004.5 - - - - - - - - -
20/12:00am 14.5 - - - 1005.0 - - - - - - - - -
 
Date/Time
EST
Temp
°C
Wind Pressure Rain since
9am
mm
Weather Cloud Vis
km
Sea
Height
m
Swell
Dir  Spd
kts
Gust
kts
hPa Trend Height
m
Period
s
Dir
19/11:30pm 14.1 - - - 1004.8 - - - - - - - - -
19/11:00pm 14.3 - - - 1005.4 - - - - - - - - -
19/10:30pm 14.4 - - - 1005.7 - - - - - - - - -
19/10:00pm 14.3 - - - 1006.0 - - - - - - - - -
19/09:30pm 14.2 - - - 1006.5 - - - - - - - - -
19/09:00pm 14.4 - - - 1006.4 - - - - - - - - -

Other Formats:

Comma delimited format used in spreadsheet applications
http://www.bom.gov.au/fwo/IDT60701/IDT60701.95987.axf

JavaScript Object Notation format (JSON) in row-major order
http://www.bom.gov.au/fwo/IDT60701/IDT60701.95987.json